NOAA 16 DEB, 41502

Orbit data source: Space-Track

NOAA 16 DEB, 41502 is space debris in SSO originally from a launch on Thu, 21 Sep 2000 UTC launched from the Air Force Western Test Range (AFWTR). Debris objects in space refer to the collection of defunct objects orbiting the Earth. Examples of debris include non-operational satellites, rocket bodies, and fragments generated from explosions, collisions, or faulty payload assembly.

Loading next visibility...
Identifier
41502, 2000-055MA
Orbit
SSO
Country
Flag of USUS
Related business
Manufacturer
Unknown
Mission
Spacecraft
Bus & Motor
Unknown
Mass
Unknown
Launch date (UTC)
2000-09-21 (26 years ago)
Launch vehicle
Unknown
Launch site
Air Force Western Test Range (AFWTR)
Object type
Payload
Rocket body
Debris
Shape & HBR
Unknown shape, 0.1 m
Radar Cross Section
Small (<0.1 m²)

Expand to show TLE details & history
Last TLE update: 1 day ago

TLE from 1 day ago
0 NOAA 16 DEB
1 41502U 00055MA  26119.35602872  .00002718  00000-0  12038-2 0  9998
2 41502  98.6489 171.0626 0007981 249.6112 110.4210 14.23929513524381
Epoch: 2026-04-29T08:32Z
TLE epoch observation values (Epoch: 2026-04-29T08:32:40.881Z)
Latitude
-0°
Longitude
-174.4259°
Altitude
817.023 km
Speed
7.444 km/s
True Right ascension
11h 24m 15s
True Declination
0° 00' 00"
Sunlit
Object was in full shadow at epoch
Visualization orbit readout
Latitude
Unknown
Longitude
Unknown
Altitude
Unknown
Speed
Unknown
Apparent Right ascension
Unknown
Apparent Declination
Unknown
Sunlit
N/A
Visualization observer readout
Local Sidereal Time
16:55:32
Azimuth
Unknown
Elevation
Unknown
Doppler factor
Unknown
Orbital elements
Apogee altitude
814.981 km
Perigee altitude
803.508 km
Semi-major axis
7,187.381 km
Eccentricity
0.0008
Inclination
98.6489°
RAAN
171.0626°
Arg. of periapsis
249.6112°
True anomaly
110.50668°
Mean anomaly
110.421°
Eccentric anomaly
110.46384°
Mean motion
3.56194 °/min
Orbital period
101.07 mins
BSTAR
0.0012038
Loading maneuver chart data...
Computing Atmospheric mass density...
Loading historical data...
Loading historical data...
Loading historical data...
Loading historical data...
Loading historical data...
Loading historical data...
Loading historical data...

Documentation

Showing up to 5 results
|